Simultaneous Nadir Overpasses (SNOs) Predictions

Prediction of SNOs between METOP-A and NOAA-19 Satellite Orbit:

Table of predicted SNOs for the next 14.0 days since TLE Epoch: 5/8/2015
Index Date (METOP-A) Time (METOP-A) Lat,Lon (METOP-A) SZA (METOP-A ) Date (NOAA-19) Time (NOAA-19) Lat,Lon (NOAA-19) SZA (NOAA-19 ) Distance(km) Time Diff (sec)
1 05/16/2015 01:56:52 75.41, 148.96 56.34 05/16/2015 01:55:44 75.40, 146.31 56.37 74.11 68
2 05/16/2015 02:47:43 -74.96, -45.02 124.11 05/16/2015 02:46:35 -74.94, -45.02 124.13 2.27 68
3 05/16/2015 03:38:23 74.96, 122.30 55.88 05/16/2015 03:37:37 74.95, 122.19 55.88 3.15 46
4 05/16/2015 04:29:05 -74.94, -70.42 124.15 05/16/2015 04:28:37 -74.91, -70.44 124.18 3.61 28
5 05/16/2015 05:19:46 74.89, 96.76 55.80 05/16/2015 05:19:39 74.92, 96.78 55.83 3.32 7
6 05/16/2015 06:10:28 -74.87, -95.95 124.23 05/16/2015 06:10:39 -74.88, -95.85 124.23 3.07 11
7 05/16/2015 07:01:08 74.87, 71.36 55.76 05/16/2015 07:01:41 74.89, 71.37 55.77 1.90 33
8 05/16/2015 07:51:50 -74.85,-121.35 124.27 05/16/2015 07:52:41 -74.84,-121.26 124.28 2.76 51
9 05/16/2015 08:42:30 74.85, 45.97 55.72 05/16/2015 08:43:43 74.85, 45.96 55.72 0.53 73




NCC Satellite Simultaneous Nadir Overpasses (SNOs) Prediction Service
